Regional Weather Roundup
Issued by NWS Newport/Morehead, NC

Current Version | Previous Version | Text Only | Print | Product List | Glossary On
Versions: 1 2 3 4 5 6 7 8 9 10 11 12 13 14 15 16 17 18 19 20 21 22 23 24 25 26 27 28 29 30 31 32 33 34 35 36 37 38 39 40 41 42 43 44 45 46 47 48 49 50
000 ASUS42 KMHX 020413 RWRMHX WEATHER ROUNDUP FOR EASTERN NORTH CAROLINA NATIONAL WEATHER SERVICE NEWPORT/MOREHEAD CITY NC 1200 AM EDT SUN AUG 02 2015 NOTE: "FAIR" INDICATES FEW OR NO CLOUDS BELOW 12,000 FEET WITH NO SIGNIFICANT WEATHER AND/OR OBSTRUCTIONS TO VISIBILITY NCZ015>017-031-032-045>047-102-103-020500- NORTH COAST CITY SKY/WX TMP DP RH WIND PRES REMARKS EDENTON N/A 78 74 88 S5 29.90S ELIZABETH CITY CLEAR 76 74 93 SW7 29.89F KITTY HAWK CLEAR 80 74 82 SW5 29.89S MANTEO CLEAR 80 76 88 SW9 29.90S $$ NCZ045>047-081-094-103-104-020500- CENTRAL COAST CITY SKY/WX TMP DP RH WIND PRES REMARKS FRISCO CLEAR 80 74 81 SW10 29.91F SWANQUARTER N/A 81 N/A N/A SW10 29.88S $$ NCZ095-097-098-100-101-020500- SOUTHERN COAST CITY SKY/WX TMP DP RH WIND PRES REMARKS BEAUFORT PTCLDY 79 76 90 SW10 29.92S CEDAR ISLAND N/A 79 N/A N/A S7 29.94S JACKSONVILLE CLEAR 77 72 84 SW5 29.92S PINEY ISLAND CLEAR N/A N/A N/A S5 29.91F WILMINGTON CLEAR 78 73 84 CALM 29.92S $$ NCZ011>013-027>030-043-044-078>080-089-090>093-098-020500- COASTAL PLAIN CITY SKY/WX TMP DP RH WIND PRES REMARKS AHOSKIE CLEAR 69 65 86 CALM 29.91S CLINTON CLEAR 77 75 95 S3 29.93S ELIZABETHTOWN PTCLDY 78 75 90 CALM 29.93R GOLDSBORO CLEAR 77 73 87 S5 29.90R GREENVILLE CLEAR 77 73 88 SW5 29.93S HAVELOCK CLEAR 77 74 90 SW6 29.93S KENANSVILLE CLEAR 75 73 91 CALM 29.94R KINSTON CLEAR 77 73 87 SW6 29.92S NEW BERN CLEAR 77 74 90 S5 29.93S RICHLANDS CLEAR 73 68 83 CALM 29.93S ROCKY MOUNT CLEAR 70 63 78 CALM 29.91R WASHINGTON CLEAR 77 74 91 S5 29.91S WHITEVILLE PTCLDY 77 73 87 S3 29.93R $$ AMZ130-135-150-152-154-156-158-170-250-252-270-ANZ085-086-088-633-658-670-020500- MARINE OBSERVATIONS STATION/POSITION TIME TEMP WIND PRES WAVE SWELL AIR SEA DIR/SP/G HT/PER HT/PER (UTC) (F) (DEG/KT/KT) (MB) (FT/S) (FT/S) CHESAPEAKE LIGHT 0400 80 200/ 13/ 14 1012.4 64 E VA BEACH 0350 81 81 190/ 12/ 14 1011.9 3/ 7 3/ 7 DUCK 0300 82 78 210/ 9/ 12 1011.5 2 E DUCK 0311 80 N/A 2/12 2/12 OREGON INLET 0300 81 85 220/ 7/ 10 1012.6 13E OREGON INLT 0400 81 N/A 3/ 8 HATTERAS CG 0300 80 81 230/ 6/ 9 1012.6 DIAMOND BUOY 0350 83 85 230/ 16/ 16 1012.7 4/ 8 2/ 8 CAPE LOOKOUT 0400 80 230/ 9/ 12 1012.9 BEAUFORT LAB 0300 81 82 210/ 10/ 14 1012.6 30 SE NEW RVR IN NOT AVBL 27 SE WRIGHTSVLE 0300 78 82 220/ 12/ 16 N/A 5 SE WRIGHTSVLE 0308 81 83 210/ 14/ 19 1013.1 225 S CAPE HAT 0350 82 81 210/ 16/ 19 1015.9 7/ 8 3/ 8 41 SE CHARLESTON 0350 81 84 250/ 8/ 10 1013.0 4/ 7 3/ 7 $$

USA.gov is the U.S. government's official web portal to all federal, state and local government web resources and services.